138  
SXUS52 KTAE 231918  
OSOTAE  
OSOTAE  
NORTH FLORIDA/SOUTH ALABAMA/SOUTHWEST GEORGIA WEATHER ROUNDUP  
NATIONAL WEATHER SERVICE TALLAHASSEE FLORIDA  
300 PM EDT SAT JUN 23 2018  
 
NOTE: "FAIR" INDICATES FEW OR NO CLOUDS BELOW 12,000 FEET WITH NO  
SIGNIFICANT WEATHER AND/OR OBSTRUCTIONS TO VISIBILITY.  
 
!FLZ017-115-028-034-025-232000   
..NORTH FLORIDA
 
 
 
CITY SKY/WX TMP DP RH WIND PRES REMARKS  
TALLAHASSEE FAIR 93 70 46 NW6 29.96F HX 99  
APALACHICOLA PTSUNNY 90 78 68 SW16 29.99S HX 104  
PERRY CLOUDY 93 74 54 W3 29.98F HX 103  
CROSS CITY FAIR 91 73 53 SW12 29.99F HX 99  
JACKSONVILLE FAIR 93 70 46 W10 29.96F HX 99  

 
 
!FLZ112-006-005-002-011-232000   
..FLORIDA PANHANDLE
 
 
 
CITY SKY/WX TMP DP RH WIND PRES REMARKS  
MARIANNA FAIR 93 72 50 W8 29.96F HX 101  
BONIFAY FAIR 92 72 51 VRB5 29.97 HX 99  
PANAMA CITY NW FAIR 91 73 55 SW15G22 29.96F HX 99  
TYNDALL AFB FAIR 89 76 66 W14 29.99F HX 100  
TYND DRONE APT FAIR 87 78 72 SW6 29.99F HX 100  
DE FUNIAK SPR MOCLDY 91 71 50 SW5 29.97F HX 97  
EGLIN AFB MOSUNNY 91 73 54 SW13G18 29.96F HX 99  
DESTIN FAIR 87 76 69 SW12G18 29.97F HX 97  
HURLBURT MOSUNNY 89 77 67 SW13G21 29.96F HX 101  
CRESTVIEW FAIR 94 71 47 NW9 29.96F HX 101  
PENSACOLA FAIR 92 73 53 W13G22 29.96F HX 100  

 
 
!ALZ063-066-232000   
..SOUTH ALABAMA
 
 
 
CITY SKY/WX TMP DP RH WIND PRES REMARKS  
DOTHAN FAIR 91 68 46 W10 30.01F HX 95  
OZARK CAIRNS FAIR 92 70 47 W10 29.96F HX 97  
FT RUCKER HELI FAIR 91 72 52 W8 29.96F HX 98  
RUCKER HELI 3 FAIR 90 70 51 NW7 29.96F HX 96  
RUCKER HELI 2 N/A N/A N/A N/A MISG N/A  
FLORALA APT FAIR 92 69 47 VRB5 29.98F HX 97  
ANDALUSIA FAIR 95 71 45 W8 29.97F HX 102  
TROY FAIR 89 68 49 VRB7 29.98F HX 93  
EUFALA FAIR 92 72 51 VRB6 29.95F HX 99  
MOBILE FAIR 92 73 53 VRB6 29.97F HX 100  

 
 
!GAZ120>161-232000   
..SOUTHWEST AND SOUTH CENTRAL GEORGIA
 
 
 
CITY SKY/WX TMP DP RH WIND PRES REMARKS  
THOMASVILLE FAIR 91 70 49 W3 29.99F HX 97  
BAINBRIDGE FAIR 95 68 41 W10 29.97F HX 99  
MOODY AFB FAIR 90 69 50 W7G18 29.97F HX 95  
VALDOSTA FAIR 92 73 53 VRB3 29.98F HX 100  
MOULTRIE FAIR 91 70 49 W9 29.99F HX 97  
BLAKELY FAIR 90 68 48 W10 29.97F HX 93  
ALBANY FAIR 94 69 44 W12 29.98F HX 99  
TIFTON FAIR 91 67 44 W13G18 29.97F HX 94  
FITZGERALD MOCLDY 92 73 54 W6 29.99F HX 101  
CORDELE FAIR 91 71 52 W12G17 29.97F HX 97  
AMERICUS FAIR 90 64 43 W13 29.98F HX 91  
HOMERVILLE FAIR 91 70 49 W9G17 29.98S HX 97  

 
 
!GMZ750-755-770-775-232000   
..COASTAL AND BUOY OBS
 
 
 
STATION/POSITION TIME TEMP WIND PRES VSBY WAVE  
AIR SEA DIR/SP/G HT/PER  
(UTC) (F) (DEG/KT/KT) (MB) (MI) (FT/S)  
KEATON BEACH 1900 85 250/ 12/ 13 1015.8F  
CEDAR KEY 1900 87 310/ 7/ 11 1016.1F  
C TOWER 1900 83 270/ 12/ 13 1016.3F  
APALACHICOLA BUO NOT AVBL  
PANAMA CITY BUOY 1850 85 86 280/ 10/ 12 1015.8F 3/ 5  
MOBILE BUOY 1900 85 250/ 8/ 10 1015.9  
ORANGE BCH AL BU 1900 84 240/ 10/ 12 1015.1  

 
 
 
CLICK HERE TO GO TO PREVIOUS BULLETINS.

The Nexlab FL Page
The Nexlab GA Page
The Nexlab AL Page Main Text Page